WA2GUG Weather Reports


time (UTC)temp
C
wind
direction
speed
KPH
gust
KPH
rain 1hr
cm
rain 24hr
cm
rain mn
cm
humidity
%
barometer
mb
20260906222209 26 205 0.0 0.0 0.00 0.00 0.00 99 1011.0
20260906221709 27 241 0.0 0.0 0.00 0.00 0.00 99 1011.0
20260906221209 28 216 0.0 0.0 0.00 0.00 0.00 99 1011.0
20260906220709 27 178 0.0 0.0 0.00 0.00 0.00 99 1011.0
20260906220209 28 179 0.0 0.0 0.00 0.00 0.00 99 1011.0
20260906215709 28 167 0.0 0.0 0.00 0.00 0.00 99 1011.0
20260906215209 29 84 0.0 0.0 0.00 0.00 0.00 99 1011.0
20260906214709 30 181 0.0 0.0 0.00 0.00 0.00 99 1011.0
20260906214209 30 226 0.0 0.0 0.00 0.00 0.00 99 1011.0
20260906213709 30 90 0.0 0.0 0.00 0.00 0.00 99 1011.0
20260906213209 30 137 0.0 0.0 0.00 0.00 0.00 99 1011.0
20260906212709 31 86 0.0 0.0 0.00 0.00 0.00 99 1011.0
20260906212209 31 143 0.0 0.0 0.00 0.00 0.00 99 1011.0
20260906211709 31 182 0.0 1.6 0.00 0.00 0.00 99 1011.0
20260906211209 32 194 0.0 1.6 0.00 0.00 0.00 99 1011.0
20260906210709 32 70 0.0 0.0 0.00 0.00 0.00 99 1011.0
20260906210209 31 139 0.0 1.6 0.00 0.00 0.00 99 1011.0
20260906205709 31 90 0.0 1.6 0.00 0.00 0.00 99 1011.0
20260906205208 32 136 0.0 0.0 0.00 0.00 0.00 99 1011.0
20260906204709 33 182 0.0 0.0 0.00 0.00 0.00 99 1011.0
20260906204208 33 152 0.0 0.0 0.00 0.00 0.00 99 1011.0
20260906203708 33 178 0.0 0.0 0.00 0.00 0.00 99 1011.0
20260906203208 33 156 0.0 0.0 0.00 0.00 0.00 99 1011.0
20260906202708 32 162 0.0 0.0 0.00 0.00 0.00 99 1011.0
20260906202208 32 7 0.0 0.0 0.00 0.00 0.00 99 1011.0
20260906201709 31 176 0.0 0.0 0.00 0.00 0.00 99 1011.0
20260906201208 31 145 0.0 9.7 0.00 0.00 0.00 99 1011.0
20260906200708 32 142 1.6 9.7 0.00 0.00 0.00 99 1011.0
20260906200208 32 94 0.0 0.0 0.00 0.00 0.00 99 1011.0
20260906195708 32 164 0.0 0.0 0.00 0.00 0.00 99 1011.0
20260906195208 32 85 0.0 0.0 0.00 0.00 0.00 99 1011.0
20260906194708 32 155 0.0 0.0 0.00 0.00 0.00 99 1011.0
20260906194208 32 91 0.0 0.0 0.00 0.00 0.00 99 1011.0
20260906193708 32 315 0.0 4.8 0.00 0.00 0.00 99 1011.0
20260906193208 31 88 0.0 9.7 0.00 0.00 0.00 99 1011.0
20260906192708 31 95 1.6 9.7 0.00 0.00 0.00 99 1011.0
20260906192208 30 142 0.0 11.3 0.00 0.00 0.00 99 1011.0
20260906191709 29 173 1.6 11.3 0.00 0.00 0.00 99 1011.0
20260906191208 28 83 0.0 0.0 0.00 0.00 0.00 99 1011.0
20260906190708 30 138 0.0 0.0 0.00 0.00 0.00 99 1011.0
20260906190208 30 144 0.0 0.0 0.00 0.00 0.00 99 1011.0
20260906185708 28 174 0.0 0.0 0.00 0.00 0.00 99 1011.0
20260906185208 28 51 0.0 0.0 0.00 0.00 0.00 99 1011.0
20260906184708 27 132 0.0 0.0 0.00 0.00 0.00 99 1011.0
20260906184208 26 97 0.0 0.0 0.00 0.00 0.00 99 1011.0
20260906183708 26 53 0.0 0.0 0.00 0.00 0.00 99 1011.0
20260906183208 28 133 0.0 0.0 0.00 0.00 0.00 99 1011.0
20260906182708 30 146 0.0 0.0 0.00 0.00 0.00 99 1011.0
20260906182208 30 98 0.0 0.0 0.00 0.00 0.00 99 1011.0
20260906181708 31 89 0.0 0.0 0.00 0.00 0.00 99 1011.0
20260906181208 31 1 0.0 1.6 0.00 0.00 0.00 99 1011.0
20260906180708 30 142 0.0 1.6 0.00 0.00 0.00 99 1011.0
20260906180208 28 131 0.0 0.0 0.00 0.00 0.00 99 1011.0
20260906175708 28 147 0.0 1.6 0.00 0.00 0.00 99 1011.0
20260906175208 28 134 0.0 1.6 0.00 0.00 0.00 99 1011.0
20260906174708 29 130 0.0 1.6 0.00 0.00 0.00 99 1011.0
20260906174208 28 135 0.0 0.0 0.00 0.00 0.00 99 1011.0
20260906173708 27 135 0.0 4.8 0.00 0.00 0.00 99 1011.0
20260906173208 29 136 0.0 4.8 0.00 0.00 0.00 99 1011.0
20260906172708 31 81 0.0 0.0 0.00 0.00 0.00 99 1011.0
20260906172208 29 144 0.0 4.8 0.00 0.00 0.00 99 1011.0
20260906171709 29 133 0.0 4.8 0.00 0.00 0.00 99 1011.0
20260906171208 28 277 0.0 3.2 0.00 0.00 0.00 99 1011.0
20260906170708 28 91 0.0 0.0 0.00 0.00 0.00 99 1011.0
20260906170208 27 100 0.0 0.0 0.00 0.00 0.00 99 1011.0
20260906165708 27 131 0.0 0.0 0.00 0.00 0.00 99 1011.0
20260906165208 28 129 0.0 0.0 0.00 0.00 0.00 99 1011.0
20260906164708 30 118 0.0 0.0 0.00 0.00 0.00 99 1011.0
20260906164208 30 91 0.0 1.6 0.00 0.00 0.00 99 1011.0
20260906163708 29 138 0.0 1.6 0.00 0.00 0.00 99 1011.0
20260906163208 28 52 0.0 0.0 0.00 0.00 0.00 99 1011.0
20260906162708 27 170 0.0 0.0 0.00 0.00 0.00 99 1011.0
20260906162208 27 170 0.0 1.6 0.00 0.00 0.00 99 1011.0
20260906161708 27 169 0.0 1.6 0.00 0.00 0.00 99 1011.0
20260906161208 28 90 0.0 1.6 0.00 0.00 0.00 99 1011.1
20260906160708 27 12 0.0 0.0 0.00 0.00 0.00 99 1011.1
20260906160208 27 5 0.0 0.0 0.00 0.00 0.00 99 1011.1
20260906155708 27 6 0.0 0.0 0.00 0.00 0.00 99 1011.2
20260906155208 26 138 0.0 0.0 0.00 0.00 0.00 99 1011.2
20260906154708 26 212 0.0 0.0 0.00 0.00 0.00 99 1012.0
20260906154208 25 149 0.0 0.0 0.00 0.00 0.00 99 1011.2
20260906153708 25 98 0.0 0.0 0.00 0.00 0.00 99 1012.0
20260906153208 26 131 0.0 0.0 0.00 0.00 0.00 99 1011.2
20260906152708 26 91 0.0 1.6 0.00 0.00 0.00 99 1011.2
20260906152208 27 137 0.0 4.8 0.00 0.00 0.00 99 1011.2
20260906151708 27 172 0.0 4.8 0.00 0.00 0.00 99 1012.0
20260906151208 27 141 0.0 1.6 0.00 0.00 0.00 99 1012.0
20260906150708 27 97 0.0 1.6 0.00 0.00 0.00 99 1012.0
20260906150208 27 139 0.0 1.6 0.00 0.00 0.00 99 1011.2
20260906145708 27 144 0.0 0.0 0.00 0.00 0.00 99 1011.1
20260906145208 26 33 0.0 1.6 0.00 0.00 0.00 99 1011.0
20260906144708 26 133 0.0 1.6 0.00 0.00 0.00 99 1011.0
20260906144208 25 80 0.0 0.0 0.00 0.00 0.00 99 1011.0
20260906143708 24 177 0.0 0.0 0.00 0.00 0.00 99 1011.0
20260906143208 25 42 0.0 1.6 0.00 0.00 0.00 99 1011.0
20260906142708 25 133 0.0 1.6 0.00 0.00 0.00 99 1011.0
20260906142208 25 140 0.0 0.0 0.00 0.00 0.00 99 1011.0
20260906141708 26 95 0.0 0.0 0.00 0.00 0.00 99 1011.0
20260906141208 26 139 0.0 1.6 0.00 0.00 0.00 99 1011.0
20260906140708 25 175 0.0 1.6 0.00 0.00 0.00 99 1011.0
20260906140208 23 137 0.0 0.0 0.00 0.00 0.00 99 1011.0
20260906135708 21 135 0.0 0.0 0.00 0.00 0.00 99 1011.0
20260906135208 21 131 0.0 0.0 0.00 0.00 0.00 99 1011.0
20260906134708 21 133 0.0 0.0 0.00 0.00 0.00 99 1011.0
20260906134208 21 165 0.0 0.0 0.00 0.00 0.00 99 1011.0
20260906133708 21 162 0.0 3.2 0.00 0.00 0.00 99 1011.0
20260906133208 21 140 0.0 3.2 0.00 0.00 0.00 99 1011.0
20260906132708 -17 134 0.0 0.0 0.00 0.00 0.00 99 1011.0
20260906132208 -17 131 0.0 0.0 0.00 0.00 0.00 99 1011.0
20260906131708 -17 59 0.0 0.0 0.00 0.00 0.00 99 1011.0
20260906131208 -17 141 0.0 0.0 0.00 0.00 0.00 99 1011.0
20260906130708 -17 140 0.0 0.0 0.00 0.00 0.00 99 1011.0
20260906130208 -17 154 0.0 0.0 0.00 0.00 0.00 99 1011.0
20260906125708 -17 133 0.0 0.0 0.00 0.00 0.00 99 1011.0
20260906125208 -17 143 0.0 0.0 0.00 0.00 0.00 99 1011.0
20260906124708 -17 174 0.0 0.0 0.00 0.00 0.00 99 1011.0
20260906124208 -17 89 0.0 0.0 0.00 0.00 0.00 99 1011.0
20260906123708 -17 54 0.0 0.0 0.00 0.00 0.00 99 1011.0
20260906123208 -17 158 0.0 0.0 0.00 0.00 0.00 99 1011.0
20260906122708 -17 148 0.0 0.0 0.00 0.00 0.00 99 1011.0
20260906122208 -17 154 0.0 0.0 0.00 0.00 0.00 99 1011.0
20260906121708 -17 125 0.0 0.0 0.00 0.00 0.00 99 1010.2
20260906121208 -17 1 0.0 0.0 0.00 0.00 0.00 99 1010.2
20260906120708 -17 159 0.0 0.0 0.00 0.00 0.00 99 1011.0
20260906120208 -17 146 0.0 0.0 0.00 0.00 0.00 99 1011.0
20260906115708 -17 82 0.0 0.0 0.00 0.00 0.00 99 1010.2
20260906115208 -17 31 0.0 0.0 0.00 0.00 0.00 99 1010.2
20260906114708 -17 6 0.0 0.0 0.00 0.00 0.00 99 1011.0
20260906114208 -17 97 0.0 0.0 0.00 0.00 0.00 99 1011.0
20260906113708 -17 347 0.0 0.0 0.00 0.00 0.00 99 1010.2
20260906113208 -17 344 0.0 0.0 0.00 0.00 0.00 99 1010.2
20260906112708 -17 342 0.0 0.0 0.00 0.00 0.00 99 1010.2
20260906112208 -17 332 0.0 0.0 0.00 0.00 0.00 99 1010.1
20260906111708 -17 302 0.0 0.0 0.00 0.00 0.00 99 1010.0
20260906111208 -17 261 0.0 0.0 0.00 0.00 0.00 99 1010.0
20260906110708 -17 202 0.0 0.0 0.00 0.00 0.00 99 1010.0
20260906110208 -17 190 0.0 0.0 0.00 0.00 0.00 99 1010.0
20260906105708 -17 180 0.0 0.0 0.00 0.00 0.00 99 1010.0
20260906105208 -17 180 0.0 0.0 0.00 0.00 0.00 99 1010.0
20260906104708 -17 180 0.0 0.0 0.00 0.00 0.00 99 1010.0
20260906104208 -17 159 0.0 0.0 0.00 0.00 0.00 99 1010.0
20260906103708 -17 112 0.0 0.0 0.00 0.00 0.00 99 1010.0
20260906103208 -17 103 0.0 0.0 0.00 0.00 0.00 99 1010.0
20260906102708 -17 106 0.0 0.0 0.00 0.00 0.00 99 1010.0
20260906102208 -17 91 0.0 0.0 0.00 0.00 0.00 99 1010.0
20260906101708 -17 143 0.0 0.0 0.00 0.00 0.00 99 1010.0
20260906101208 -17 124 0.0 0.0 0.00 0.00 0.00 99 1010.0
20260906100708 -17 112 0.0 0.0 0.00 0.00 0.00 99 1010.0
20260906100208 -17 112 0.0 0.0 0.00 0.00 0.00 99 1010.0
20260906095708 -17 105 0.0 0.0 0.00 0.00 0.00 99 1009.2
20260906095208 -17 103 0.0 0.0 0.00 0.00 0.00 99 1010.0
20260906094708 -17 141 0.0 0.0 0.00 0.00 0.00 99 1010.0
20260906094208 -17 209 0.0 0.0 0.00 0.00 0.00 99 1010.0
20260906093708 -17 315 0.0 0.0 0.00 0.00 0.00 99 1010.0
20260906093208 -17 249 0.0 0.0 0.00 0.00 0.00 99 1010.0
20260906092708 -17 200 0.0 0.0 0.00 0.00 0.00 99 1010.0
20260906092208 -17 109 0.0 0.0 0.00 0.00 0.00 99 1010.0
20260906091708 -17 115 0.0 0.0 0.00 0.00 0.00 99 1010.0
20260906091208 -17 157 0.0 0.0 0.00 0.00 0.00 99 1010.0
20260906090708 -17 157 0.0 0.0 0.00 0.00 0.00 99 1009.2
20260906090208 -17 146 0.0 0.0 0.00 0.00 0.00 99 1009.2
20260906085708 -17 135 0.0 0.0 0.00 0.00 0.00 99 1009.1
20260906085208 -17 108 0.0 0.0 0.00 0.00 0.00 99 1009.2
20260906084708 -17 99 0.0 0.0 0.00 0.00 0.00 99 1009.1
20260906084208 -17 135 0.0 0.0 0.00 0.00 0.00 99 1009.1
20260906083708 -17 135 0.0 0.0 0.00 0.00 0.00 99 1009.1
20260906083208 -17 135 0.0 0.0 0.00 0.00 0.00 99 1009.0
20260906082708 -17 135 0.0 0.0 0.00 0.00 0.00 99 1009.0
20260906082208 -17 135 0.0 0.0 0.00 0.00 0.00 99 1009.0
20260906081708 -17 135 0.0 0.0 0.00 0.00 0.00 99 1009.0
20260906081208 -17 135 0.0 0.0 0.00 0.00 0.00 99 1009.0
20260906080708 -17 135 0.0 0.0 0.00 0.00 0.00 99 1009.0
20260906080208 -17 135 0.0 0.0 0.00 0.00 0.00 99 1009.0
20260906075708 -17 135 0.0 0.0 0.00 0.00 0.00 99 1009.0
20260906075207 14 135 0.0 0.0 0.00 0.00 0.00 99 1009.0
20260906074708 14 135 0.0 0.0 0.00 0.00 0.00 99 1009.0
20260906074208 14 135 0.0 0.0 0.00 0.00 0.00 99 1009.0
20260906073707 15 135 0.0 0.0 0.00 0.00 0.00 99 1009.0
20260906073208 15 135 0.0 0.0 0.00 0.00 0.00 99 1009.0
20260906072707 15 135 0.0 0.0 0.00 0.00 0.00 99 1009.0
20260906072207 15 132 0.0 0.0 0.00 0.00 0.00 99 1009.0
20260906071708 15 97 0.0 0.0 0.00 0.00 0.00 99 1009.0
20260906071207 15 86 0.0 0.0 0.00 0.00 0.00 99 1009.0
20260906070707 15 167 0.0 0.0 0.00 0.00 0.00 99 1009.0
20260906070207 16 313 0.0 0.0 0.00 0.00 0.00 99 1009.0
20260906065707 16 316 0.0 0.0 0.00 0.00 0.00 99 1009.0
20260906065207 16 102 0.0 0.0 0.00 0.00 0.00 99 1009.0
20260906064707 -17 16 0.0 0.0 0.00 0.00 0.00 99 1009.0
20260906064207 -17 88 0.0 0.0 0.00 0.00 0.00 99 1009.0
20260906063707 -17 68 0.0 0.0 0.00 0.00 0.00 99 1009.0
20260906063207 15 345 0.0 0.0 0.00 0.00 0.00 99 1009.0
20260906062707 15 325 0.0 0.0 0.00 0.00 0.00 99 1009.0
20260906062207 15 113 0.0 0.0 0.00 0.00 0.00 99 1009.0
20260906061708 15 101 0.0 0.0 0.00 0.00 0.00 99 1009.0
20260906061207 15 125 0.0 0.0 0.00 0.00 0.00 99 1009.0
20260906060707 15 135 0.0 0.0 0.00 0.00 0.00 99 1009.0
20260906060207 -17 106 0.0 0.0 0.00 0.00 0.00 99 1009.0
20260906055707 -17 97 0.0 0.0 0.00 0.00 0.00 99 1009.0
20260906055207 -17 91 0.0 0.0 0.00 0.00 0.00 99 1009.0
20260906054707 -17 90 0.0 0.0 0.00 0.00 0.00 99 1009.0
20260906054207 -17 84 0.0 0.0 0.00 0.00 0.00 99 1009.1
20260906053707 -17 95 0.0 0.0 0.00 0.00 0.00 99 1009.2
20260906053207 -17 205 0.0 0.0 0.00 0.00 0.00 99 1009.2
20260906052707 -17 106 0.0 0.0 0.00 0.00 0.00 99 1010.0
20260906052207 -17 115 0.0 0.0 0.00 0.00 0.00 99 1010.0
20260906051708 -17 99 0.0 0.0 0.00 0.00 0.00 99 1009.2
20260906051207 -17 101 0.0 0.0 0.00 0.00 0.00 99 1010.0
20260906050707 -17 51 0.0 0.0 0.00 0.00 0.00 99 1010.0
20260906050207 -17 16 0.0 0.0 0.00 0.00 0.00 99 1010.0
20260906045707 -17 315 0.0 0.0 0.00 0.00 0.00 99 1010.0
20260906045207 -17 331 0.0 0.0 0.00 0.00 0.00 99 1010.0
20260906044707 -17 0 0.0 0.0 0.00 0.00 0.00 99 1010.0
20260906044207 -17 125 0.0 0.0 0.00 0.00 0.00 99 1009.2
20260906043707 -17 107 0.0 0.0 0.00 0.00 0.00 99 1010.0
20260906043207 -17 145 0.0 0.0 0.00 0.00 0.00 99 1009.2
20260906042707 -17 103 0.0 0.0 0.00 0.00 0.00 99 1009.2
20260906042207 -17 48 0.0 0.0 0.00 0.00 0.00 99 1010.0
20260906041707 -17 172 0.0 0.0 0.00 0.00 0.00 99 1010.0
20260906041207 -17 124 0.0 0.0 0.00 0.00 0.00 99 1010.0
20260906040707 -17 109 0.0 0.0 0.00 0.00 0.00 99 1010.0
20260906040207 -17 349 0.0 0.0 0.00 0.00 0.00 99 1009.2
20260906035707 -17 106 0.0 0.0 0.00 0.00 0.00 99 1010.0
20260906035207 -17 113 0.0 0.0 0.00 0.00 0.00 99 1010.0
20260906034707 -17 99 0.0 0.0 0.00 0.00 0.00 99 1010.0
20260906034207 -17 112 0.0 0.0 0.00 0.00 0.00 99 1010.0
20260906033707 -17 91 0.0 0.0 0.00 0.00 0.00 99 1010.0
20260906033207 -17 149 0.0 0.0 0.00 0.00 0.00 99 1009.2
20260906032707 -17 140 0.0 0.0 0.00 0.00 0.00 99 1009.1
20260906032207 -17 118 0.0 0.0 0.00 0.00 0.00 99 1009.0
20260906031707 -17 135 0.0 0.0 0.00 0.00 0.00 99 1009.0
20260906031207 -17 135 0.0 0.0 0.00 0.00 0.00 99 1009.0
20260906030707 -17 135 0.0 0.0 0.00 0.00 0.00 99 1009.0
20260906030207 15 159 0.0 0.0 0.00 0.00 0.00 99 1009.0
20260906025707 -17 175 0.0 0.0 0.00 0.00 0.00 99 1009.0
20260906025207 -17 112 0.0 0.0 0.00 0.00 0.00 99 1009.0
20260906024707 16 92 0.0 0.0 0.00 0.00 0.00 99 1009.0
20260906024207 16 86 0.0 0.0 0.00 0.00 0.00 99 1009.0
20260906023707 -17 169 0.0 0.0 0.00 0.00 0.00 99 1009.0
20260906023207 -17 141 0.0 0.0 0.00 0.00 0.00 99 1009.0
20260906022707 16 103 0.0 0.0 0.00 0.00 0.00 99 1009.0
20260906022207 16 71 0.0 0.0 0.00 0.00 0.00 99 1009.0
20260906021707 16 270 0.0 0.0 0.00 0.00 0.00 99 1009.0
20260906021207 16 215 0.0 0.0 0.00 0.00 0.00 99 1009.0
20260906020707 16 202 0.0 0.0 0.00 0.00 0.00 99 1009.0
20260906020207 -17 199 0.0 0.0 0.00 0.00 0.00 99 1009.0
20260906015707 -17 180 0.0 0.0 0.00 0.00 0.00 99 1009.0
20260906015207 15 179 0.0 0.0 0.00 0.00 0.00 99 1009.0
20260906014707 15 177 0.0 0.0 0.00 0.00 0.00 99 1009.0
20260906014207 15 184 0.0 0.0 0.00 0.00 0.00 99 1009.0
20260906013707 15 180 0.0 0.0 0.00 0.00 0.00 99 1009.0
20260906013207 15 180 0.0 0.0 0.00 0.00 0.00 99 1009.0
20260906012707 15 180 0.0 0.0 0.00 0.00 0.00 99 1009.0
20260906012207 15 226 0.0 0.0 0.00 0.00 0.00 99 1009.0
20260906011707 15 247 0.0 0.0 0.00 0.00 0.00 99 1009.0
20260906011207 15 120 0.0 0.0 0.00 0.00 0.00 99 1009.0
20260906010707 15 142 0.0 0.0 0.00 0.00 0.00 99 1009.0
20260906010207 15 180 0.0 0.0 0.00 0.00 0.00 99 1009.0
20260906005707 15 180 0.0 0.0 0.00 0.00 0.00 99 1009.0
20260906005207 15 108 0.0 0.0 0.00 0.00 0.00 99 1009.0
20260906004707 15 118 0.0 0.0 0.00 0.00 0.00 99 1009.0
20260906004207 15 117 0.0 0.0 0.00 0.00 0.00 99 1009.0
20260906003707 15 157 0.0 0.0 0.00 0.00 0.00 99 1009.0
20260906003207 15 157 0.0 0.0 0.00 0.00 0.00 99 1009.0
20260906002707 15 157 0.0 0.0 0.00 0.00 0.00 99 1009.0
20260906002207 15 157 0.0 0.0 0.00 0.00 0.00 99 1009.0
20260906001707 15 157 0.0 0.0 0.00 0.00 0.00 99 1009.0
20260906001207 15 157 0.0 0.0 0.00 0.00 0.00 99 1009.0
20260906000707 16 157 0.0 0.0 0.00 0.00 0.00 99 1009.0
20260906000207 16 157 0.0 0.0 0.00 0.00 0.00 99 1008.2
20260905235707 16 157 0.0 0.0 0.00 0.00 0.00 99 1008.2
20260905235207 16 157 0.0 0.0 0.00 0.00 0.00 99 1009.0
20260905234707 16 142 0.0 0.0 0.00 0.00 0.00 99 1009.0
20260905234207 16 135 0.0 0.0 0.00 0.00 0.00 99 1009.0
20260905233707 17 135 0.0 0.0 0.00 0.00 0.00 99 1009.0
20260905233207 17 100 0.0 0.0 0.00 0.00 0.00 99 1009.0
20260905232707 17 86 0.0 0.0 0.00 0.00 0.00 99 1009.0
20260905232207 17 135 0.0 0.0 0.00 0.00 0.00 99 1008.2
20260905231707 17 102 0.0 0.0 0.00 0.00 0.00 99 1008.2
20260905231207 17 63 0.0 0.0 0.00 0.00 0.00 99 1009.0
20260905230707 18 79 0.0 0.0 0.00 0.00 0.00 99 1009.0
20260905230207 18 106 0.0 0.0 0.00 0.00 0.00 99 1008.2
20260905225707 19 137 0.0 0.0 0.00 0.00 0.00 99 1008.2
20260905225207 20 142 0.0 0.0 0.00 0.00 0.00 99 1009.0
20260905224707 21 135 0.0 0.0 0.00 0.00 0.00 99 1008.2
20260905224207 22 112 0.0 0.0 0.00 0.00 0.00 99 1009.0
20260905223707 23 336 0.0 0.0 0.00 0.00 0.00 99 1008.2
20260905223207 25 175 0.0 0.0 0.00 0.00 0.00 99 1009.0
20260905222707 26 167 0.0 0.0 0.00 0.00 0.00 99 1009.0